Simultaneous Nadir Overpasses (SNOs) Predictions

Prediction of SNOs between AQUA and GOES-15 Satellite Orbit:

Table of predicted SNOs for the next 14.0 days since TLE Epoch: 5/19/2017
Index Date Time (AQUA) AQUA Lat,Lon GOES-15 Lat,Lon Distance(km) Time Diff (sec)
1 05/19/2017 22:22:49 0.61,-131.92 -0.05,-134.99 348.90 80
2 05/20/2017 10:44:04 0.53,-137.07 0.04,-134.91 246.75 80
3 05/22/2017 10:31:53 -0.13,-134.12 0.04,-134.83 80.79 80
4 05/24/2017 10:19:41 -0.72,-131.16 0.04,-134.74 407.46 80
5 05/24/2017 22:41:05 -0.39,-136.35 -0.03,-134.78 179.13 80
6 05/26/2017 22:28:54 0.28,-133.40 -0.03,-134.68 146.61 80
7 05/27/2017 10:50:09 0.85,-138.55 0.02,-134.60 449.16 80
8 05/28/2017 22:16:41 0.82,-130.43 -0.03,-134.58 471.82 80
9 05/29/2017 10:37:57 0.24,-135.59 0.02,-134.50 124.09 80
10 05/31/2017 10:25:45 -0.38,-132.63 0.02,-134.39 200.85 80
11 05/31/2017 22:47:08 -0.73,-137.82 -0.01,-134.42 386.80 80




NCC Satellite Simultaneous Nadir Overpasses (SNOs) Prediction Service
